Total_Precipitation_Accumulation
0.52 0.81 1.24 1.85 2.06 2.49 2.27 1.78 1.45 1.32 1.26 1.23 1.25 1.32 1.44 1.58 1.71 1.84 1.84 1.80 1.73 1.71 1.81 1.80 1.71 1.57 1.42 1.28 1.16 1.05 0.90 0.79 0.75 0.68 0.54 0.41 0.35 0.33 0.32 0.30 0.28 0.25 0.24
0.65 0.97 1.37 1.76 1.90 1.95 1.99 2.01 1.96 1.94 1.83 1.86 2.06 2.37 2.54 2.61 2.72 2.71 2.67 2.65 2.59 2.50 2.43 2.33 2.15 1.91 1.66 1.40 1.21 1.07 0.96 0.85 0.78 0.71 0.64 0.52 0.39 0.28 0.22 0.21 0.21 0.21 0.21
0.68 0.91 1.22 1.49 1.83 2.12 2.21 2.32 2.27 2.36 2.50 2.64 2.75 3.08 3.35 3.39 3.26 3.01 2.96 2.89 2.68 2.56 2.44 2.30 2.13 1.92 1.68 1.45 1.28 1.10 0.97 0.84 0.74 0.70 0.70 0.63 0.49 0.34 0.23 0.20 0.18 0.18 0.18
0.62 0.79 1.00 1.18 1.43 1.79 2.04 2.22 2.38 2.62 2.94 3.31 3.56 3.61 3.71 3.68 3.51 3.24 2.97 2.72 2.47 2.26 2.09 2.04 1.96 1.82 1.62 1.41 1.22 1.06 0.93 0.85 0.76 0.68 0.58 0.51 0.44 0.42 0.34 0.25 0.21 0.19 0.18
0.55 0.70 0.74 0.85 1.07 1.38 1.62 1.87 2.21 2.61 3.09 3.47 3.78 3.93 3.90 3.71 3.43 3.02 2.68 2.43 2.23 2.01 1.88 1.81 1.67 1.49 1.34 1.17 1.00 0.87 0.79 0.75 0.69 0.60 0.53 0.49 0.43 0.39 0.39 0.32 0.22 0.19 0.16
0.45 0.56 0.63 0.68 0.86 1.10 1.38 1.60 1.96 2.48 2.81 3.14 3.49 3.57 3.57 3.43 3.17 2.82 2.52 2.28 2.08 1.88 1.67 1.45 1.30 1.17 1.05 0.91 0.79 0.68 0.60 0.55 0.54 0.50 0.47 0.44 0.42 0.41 0.41 0.38 0.28 0.23 0.19
0.42 0.54 0.58 0.68 0.89 1.11 1.36 1.61 1.92 2.27 2.41 2.50 2.66 2.80 2.84 2.80 2.73 2.56 2.28 1.97 1.73 1.48 1.30 1.11 0.98 0.90 0.84 0.75 0.66 0.59 0.50 0.45 0.44 0.42 0.42 0.41 0.39 0.37 0.39 0.40 0.34 0.29 0.23
0.53 0.57 0.67 0.76 0.93 1.03 1.17 1.35 1.52 1.74 1.85 1.85 1.96 2.12 2.21 2.22 2.15 1.95 1.70 1.45 1.24 1.04 0.87 0.76 0.68 0.59 0.51 0.48 0.47 0.47 0.46 0.44 0.43 0.43 0.45 0.46 0.43 0.40 0.40 0.42 0.44 0.40 0.30
0.54 0.59 0.66 0.77 0.96 0.98 1.01 1.03 1.05 1.12 1.23 1.31 1.35 1.35 1.36 1.37 1.36 1.27 1.14 1.04 0.93 0.79 0.66 0.58 0.53 0.49 0.43 0.40 0.39 0.39 0.40 0.41 0.41 0.41 0.42 0.43 0.39 0.35 0.34 0.35 0.42 0.48 0.41
0.54 0.61 0.62 0.63 0.71 0.76 0.79 0.80 0.73 0.78 0.83 0.82 0.80 0.81 0.85 0.89 0.87 0.77 0.72 0.69 0.67 0.61 0.56 0.53 0.49 0.45 0.41 0.40 0.40 0.39 0.40 0.39 0.37 0.35 0.31 0.28 0.24 0.22 0.21 0.23 0.27 0.36 0.44
0.59 0.58 0.57 0.53 0.49 0.50 0.57 0.63 0.59 0.55 0.54 0.53 0.53 0.53 0.53 0.54 0.55 0.53 0.49 0.46 0.44 0.44 0.45 0.42 0.40 0.39 0.39 0.37 0.37 0.34 0.30 0.27 0.25 0.21 0.20 0.19 0.18 0.19 0.19 0.21 0.25 0.30 0.41
0.62 0.57 0.54 0.52 0.48 0.45 0.45 0.46 0.49 0.48 0.46 0.39 0.36 0.35 0.35 0.33 0.33 0.35 0.37 0.35 0.35 0.36 0.36 0.33 0.31 0.29 0.26 0.25 0.24 0.22 0.19 0.19 0.18 0.18 0.19 0.18 0.18 0.20 0.21 0.25 0.28 0.32 0.43
0.79 0.69 0.59 0.54 0.50 0.45 0.41 0.39 0.41 0.41 0.38 0.33 0.30 0.27 0.26 0.25 0.25 0.25 0.25 0.25 0.25 0.26 0.25 0.24 0.24 0.22 0.20 0.18 0.18 0.17 0.16 0.15 0.16 0.18 0.19 0.19 0.22 0.24 0.28 0.36 0.40 0.43 0.46
0.93 0.76 0.65 0.59 0.54 0.47 0.41 0.39 0.38 0.36 0.32 0.28 0.24 0.22 0.23 0.23 0.22 0.21 0.21 0.21 0.21 0.22 0.22 0.20 0.19 0.17 0.14 0.13 0.12 0.11 0.10 0.12 0.14 0.17 0.21 0.25 0.31 0.35 0.41 0.43 0.44 0.49 0.55
0.96 0.82 0.76 0.70 0.60 0.53 0.48 0.43 0.40 0.35 0.29 0.25 0.24 0.25 0.26 0.26 0.26 0.26 0.25 0.25 0.25 0.23 0.22 0.19 0.16 0.14 0.12 0.08 0.06 0.05 0.07 0.11 0.15 0.17 0.20 0.25 0.33 0.40 0.39 0.37 0.40 0.50 0.63
1.14 1.10 1.04 0.94 0.81 0.65 0.56 0.50 0.45 0.41 0.36 0.35 0.36 0.36 0.35 0.33 0.32 0.31 0.30 0.30 0.27 0.24 0.19 0.15 0.12 0.10 0.06 0.05 0.06 0.05 0.08 0.13 0.18 0.22 0.22 0.20 0.23 0.22 0.23 0.29 0.35 0.46 0.64
1.44 1.36 1.19 1.04 0.91 0.79 0.71 0.65 0.58 0.54 0.51 0.50 0.47 0.42 0.37 0.36 0.33 0.30 0.31 0.29 0.24 0.19 0.15 0.12 0.08 0.08 0.05 0.04 0.04 0.05 0.07 0.15 0.22 0.26 0.24 0.19 0.15 0.18 0.22 0.26 0.31 0.43 0.59
1.31 1.20 1.03 0.91 0.86 0.85 0.81 0.71 0.63 0.58 0.55 0.53 0.49 0.40 0.32 0.29 0.28 0.29 0.27 0.21 0.16 0.15 0.13 0.10 0.07 0.09 0.05 0.02 0.02 0.03 0.06 0.14 0.19 0.22 0.23 0.24 0.24 0.21 0.24 0.25 0.31 0.45 0.61
1.10 1.04 0.97 0.92 0.93 0.90 0.81 0.72 0.65 0.58 0.53 0.48 0.38 0.29 0.23 0.23 0.22 0.20 0.17 0.15 0.15 0.14 0.09 0.06 0.07 0.09 0.07 0.02 0.02 0.02 0.05 0.10 0.14 0.17 0.18 0.16 0.20 0.21 0.32 0.41 0.54 0.67 0.84
0.96 0.99 1.05 1.09 1.03 0.90 0.73 0.63 0.55 0.46 0.39 0.31 0.24 0.20 0.18 0.14 0.13 0.13 0.13 0.13 0.13 0.11 0.07 0.05 0.06 0.09 0.09 0.02 0.00 0.01 0.04 0.07 0.10 0.15 0.20 0.17 0.17 0.25 0.41 0.57 0.73 0.85 0.97
0.91 0.94 0.94 0.92 0.84 0.72 0.62 0.57 0.47 0.37 0.27 0.20 0.16 0.13 0.10 0.08 0.07 0.10 0.12 0.12 0.10 0.10 0.08 0.07 0.08 0.09 0.06 0.03 0.00 0.01 0.02 0.04 0.08 0.15 0.25 0.30 0.25 0.32 0.52 0.71 0.80 0.97 1.05
0.84 0.81 0.75 0.70 0.59 0.48 0.46 0.45 0.37 0.25 0.17 0.13 0.10 0.08 0.06 0.04 0.05 0.10 0.11 0.11 0.12 0.11 0.09 0.09 0.08 0.09 0.09 0.04 0.01 0.00 0.01 0.04 0.11 0.25 0.31 0.36 0.35 0.41 0.61 0.77 0.96 1.16 1.25
0.66 0.60 0.51 0.45 0.38 0.32 0.32 0.31 0.24 0.16 0.12 0.11 0.10 0.08 0.06 0.06 0.05 0.09 0.11 0.10 0.10 0.09 0.07 0.07 0.08 0.08 0.11 0.08 0.01 0.01 0.02 0.04 0.12 0.26 0.35 0.39 0.42 0.57 0.86 1.06 1.21 1.33 1.34
0.45 0.39 0.33 0.28 0.24 0.20 0.19 0.16 0.12 0.11 0.13 0.13 0.11 0.10 0.11 0.11 0.08 0.08 0.06 0.07 0.07 0.06 0.07 0.08 0.10 0.11 0.12 0.08 0.05 0.05 0.06 0.08 0.13 0.26 0.41 0.52 0.58 0.75 1.02 1.23 1.39 1.43 1.31
0.24 0.21 0.19 0.16 0.13 0.10 0.09 0.08 0.07 0.08 0.12 0.12 0.10 0.09 0.10 0.11 0.11 0.09 0.04 0.03 0.04 0.02 0.04 0.07 0.09 0.11 0.11 0.07 0.07 0.09 0.10 0.11 0.16 0.26 0.40 0.54 0.66 0.85 1.05 1.21 1.29 1.28 1.18
0.14 0.12 0.11 0.09 0.07 0.05 0.04 0.03 0.03 0.05 0.11 0.11 0.09 0.07 0.07 0.07 0.08 0.13 0.10 0.02 0.01 0.01 0.02 0.03 0.05 0.06 0.06 0.05 0.07 0.10 0.13 0.17 0.23 0.30 0.43 0.55 0.67 0.84 1.02 1.14 1.14 1.07 0.99